Wind_Speed
16 16 17 18 18 18 18 18 18 19 19 19 19 19 20 21 21 22 23 23 23 23 24 24 25 25 25 25 25 25 25 26 26 26 25 25 25 25 25 26 26 26 24
17 17 17 17 18 18 19 19 20 20 21 21 21 21 22 22 23 24 24 25 25 25 26 26 26 26 26 26 26 26 27 27 27 27 27 28 27 27 27 28 28 27 26
17 18 19 19 19 19 20 21 21 22 22 22 23 23 24 24 25 26 26 26 26 27 27 27 27 27 28 28 28 28 29 29 29 29 29 29 28 28 28 29 29 28 28
19 20 21 21 22 22 22 22 23 23 24 24 24 25 26 26 27 27 27 27 28 28 28 28 28 28 29 29 30 30 30 30 31 30 30 30 30 30 30 29 29 30 29
21 22 22 23 23 24 24 24 25 25 26 26 26 27 28 27 28 28 28 28 28 29 29 29 29 30 30 30 30 30 31 31 31 31 31 31 31 31 31 31 31 30 30
23 24 24 25 25 26 26 26 27 28 27 28 28 28 29 29 29 29 28 29 29 29 29 30 30 30 30 31 31 31 31 31 32 32 32 32 32 32 32 32 32 32 31
25 26 26 26 27 27 27 28 28 28 29 30 30 30 30 30 29 29 29 29 29 30 30 30 30 30 31 31 32 32 32 32 33 33 33 33 32 33 33 33 33 33 32
26 26 27 28 28 29 28 29 29 30 30 31 30 31 30 29 29 29 29 29 29 30 30 30 31 31 31 31 32 32 33 33 34 35 34 34 34 34 34 34 33 33 32
27 28 28 29 30 30 30 29 30 30 30 30 30 30 29 29 29 30 31 30 30 30 31 31 31 32 32 32 33 33 34 34 34 35 35 35 35 34 34 34 34 33 32
29 29 29 30 30 31 30 31 31 30 30 30 30 30 30 30 30 31 31 31 32 32 32 33 33 33 33 33 34 34 34 34 33 33 33 33 34 33 33 33 33 32 32
29 29 30 30 31 31 32 32 32 31 31 31 31 31 31 31 32 32 32 32 32 33 32 33 34 34 35 34 34 34 33 32 32 32 32 32 32 32 32 33 32 32 32
29 29 30 30 31 32 33 33 33 32 32 32 32 32 32 32 32 32 32 32 33 34 33 34 35 35 35 34 34 33 32 32 31 30 30 31 31 31 32 32 32 32 31
29 30 30 31 31 32 32 32 32 32 32 32 32 32 32 32 32 33 32 33 34 35 35 35 36 35 35 34 34 33 32 32 31 30 30 30 30 30 30 31 31 31 30
29 30 30 31 31 32 32 32 32 32 32 32 32 32 32 32 33 33 33 34 34 35 35 35 35 34 34 33 32 31 31 31 30 30 29 28 28 28 29 29 28 28 28
30 31 31 31 31 31 31 31 31 31 31 31 31 32 32 32 33 34 34 34 34 35 35 34 34 33 32 31 30 30 29 29 29 28 27 26 27 27 27 27 27 27 27
31 31 31 31 31 31 30 30 30 30 31 31 30 30 31 32 33 35 35 35 35 35 35 34 33 31 30 30 29 28 28 28 27 26 27 27 26 26 26 27 27 27 27
31 31 31 31 31 31 30 30 29 29 30 30 30 31 32 32 33 34 34 34 34 33 33 32 31 29 28 27 27 27 27 26 26 26 26 26 25 25 25 25 26 26 26
30 30 30 30 30 30 30 29 29 29 29 30 30 30 31 32 33 33 33 33 32 31 30 30 29 28 27 26 26 25 25 25 25 24 24 24 25 24 24 24 24 24 24
28 28 29 29 29 28 29 28 28 28 29 29 28 29 31 31 31 31 31 31 30 29 28 28 27 27 26 25 24 24 24 24 24 24 23 23 24 23 23 23 23 23 23
27 27 28 28 28 28 28 28 28 28 28 28 28 29 30 29 29 30 29 29 27 27 27 26 26 25 25 24 24 23 24 24 24 24 24 23 23 22 21 22 22 22 22
26 26 27 27 28 28 28 28 28 28 28 28 28 29 28 28 28 28 28 27 26 26 26 25 25 25 25 24 24 24 24 23 23 23 23 22 22 22 21 21 21 21 20
26 26 26 27 27 27 27 27 27 27 27 27 27 27 27 27 27 27 27 27 26 26 25 25 24 24 25 24 24 23 23 23 22 22 22 21 21 21 21 20 20 20 20
26 26 26 26 26 26 27 27 27 27 27 27 27 27 26 26 27 27 28 27 26 26 25 25 24 24 23 23 23 22 22 22 22 22 22 21 21 21 20 19 19 19 19
25 25 25 25 25 25 25 26 26 26 26 26 26 25 25 26 26 27 27 26 26 25 25 24 24 24 23 23 23 23 22 22 22 22 22 21 20 19 19 18 18 19 19
25 25 25 25 25 25 25 25 26 26 26 26 25 25 26 26 26 26 27 26 25 24 24 24 24 24 24 24 24 23 23 23 22 22 21 20 19 19 19 18 18 18 19
25 25 26 26 25 26 25 25 25 25 25 25 26 26 26 25 25 25 25 25 24 24 24 24 24 24 24 24 23 23 23 23 22 21 19 18 18 18 18 18 18 18 18
Wind_Direction
311 313 315 315 314 314 314 313 312 311 308 306 305 306 307 306 304 304 304 302 300 299 298 297 295 295 294 293 292 290 287 286 285 284 284 282 282 281 279 279 278 276 273
309 310 311 312 312 313 313 313 312 312 310 307 306 305 305 305 305 305 305 303 301 299 298 297 295 294 292 291 290 290 288 286 284 282 282 281 280 279 278 278 278 277 274
308 309 309 308 310 312 312 312 311 310 310 307 306 306 304 304 304 304 303 302 301 299 297 296 295 293 291 290 290 289 287 285 283 282 280 280 279 279 279 278 279 278 275
307 308 309 309 310 310 310 311 310 309 309 307 305 304 304 303 303 303 301 301 300 299 297 296 295 293 292 291 289 288 287 285 283 282 279 278 277 277 278 278 278 277 277
304 306 307 307 307 308 308 309 309 308 308 309 306 305 306 305 304 302 301 299 299 298 297 296 295 294 293 291 290 289 287 286 284 282 280 278 276 276 276 276 277 277 276
301 302 304 305 305 305 307 307 307 307 306 308 309 307 306 305 304 303 301 300 300 299 298 296 296 294 293 292 290 289 287 286 284 282 280 279 277 276 275 275 275 275 274
297 299 301 301 302 303 305 305 305 305 306 307 308 306 304 304 304 303 302 301 301 300 299 297 296 295 294 294 292 290 288 286 285 283 282 281 279 276 275 274 274 275 275
297 298 299 300 300 302 302 304 305 304 305 306 307 307 305 304 304 303 302 301 300 301 300 299 298 296 294 293 291 290 289 287 285 282 280 279 278 276 276 274 274 274 273
295 296 297 298 300 302 302 303 303 304 304 305 306 306 305 305 304 303 302 300 301 301 301 300 299 297 296 294 292 290 289 287 285 283 281 279 277 276 275 274 273 273 272
294 295 296 297 299 300 300 301 303 303 303 304 305 306 305 304 303 302 302 301 302 302 301 300 300 299 298 297 294 292 290 288 286 284 282 279 277 275 273 273 272 272 271
293 294 295 297 300 301 301 301 300 301 301 303 304 305 304 303 303 303 302 302 302 302 302 301 301 300 299 298 296 294 292 290 287 284 283 281 278 276 274 273 272 271 271
294 295 297 298 300 301 301 301 301 300 301 302 303 303 304 303 302 303 303 303 304 303 303 302 301 300 300 298 297 295 292 290 288 286 284 282 279 276 275 273 272 272 272
294 296 297 298 299 300 302 302 301 302 303 303 303 302 303 303 303 303 304 304 304 304 304 304 302 301 300 299 299 297 295 292 290 288 287 285 281 278 276 274 273 272 271
296 297 298 299 300 300 301 302 303 303 304 305 304 303 303 303 303 304 304 304 305 305 305 304 303 301 301 300 299 297 296 295 291 289 288 286 284 280 276 274 273 271 269
296 297 298 300 301 301 301 301 302 303 304 306 306 305 304 303 304 304 303 303 304 305 306 305 304 302 302 302 300 299 297 295 293 290 288 287 285 281 277 273 271 269 269
295 296 298 299 301 300 301 301 303 304 305 306 307 306 307 306 306 305 304 304 305 306 305 304 305 303 302 302 300 299 298 298 296 292 291 291 288 283 279 275 271 270 269
295 297 298 300 301 301 302 302 303 304 306 307 308 308 309 309 309 309 308 307 306 306 307 307 307 305 304 302 301 300 299 297 297 295 293 293 290 285 280 275 273 271 269
298 298 300 301 302 303 305 305 305 306 307 308 308 310 310 311 311 312 312 311 309 308 308 309 309 307 305 303 302 301 300 297 297 295 293 293 291 286 280 278 275 272 270
299 300 301 303 304 305 306 306 307 308 309 309 309 310 311 312 313 313 313 313 312 311 310 311 311 310 308 306 304 302 300 298 297 294 294 293 291 286 282 279 277 274 269
301 303 304 304 305 306 306 307 308 309 309 310 310 311 312 313 314 315 316 316 313 313 313 313 313 312 310 308 306 305 304 301 298 294 293 293 291 287 283 280 277 274 271
302 304 306 306 307 308 308 309 310 309 308 309 309 311 311 313 315 316 316 317 315 314 314 312 311 310 309 309 307 305 304 302 300 297 295 293 291 288 285 282 278 276 274
303 304 305 306 306 308 308 308 310 312 312 312 313 312 312 313 315 316 317 317 316 315 315 315 314 312 310 310 309 306 304 302 300 297 295 293 292 289 285 282 278 276 273
304 305 305 306 307 307 307 308 310 311 312 312 313 313 312 313 314 315 316 317 317 315 313 314 315 315 315 313 312 311 309 306 303 300 296 294 291 289 285 281 278 277 275
306 306 306 306 307 308 309 309 310 310 311 312 313 313 314 314 316 317 317 318 318 318 317 316 317 316 315 314 314 313 311 309 307 304 300 295 290 287 286 283 280 278 275
306 306 306 306 307 308 310 310 310 310 310 312 313 314 315 317 317 317 318 320 320 319 319 319 318 317 316 313 313 313 312 310 308 304 302 299 293 289 287 284 282 279 276
305 305 306 306 306 307 309 310 310 311 311 313 313 314 315 316 318 319 320 320 320 319 318 319 320 319 317 314 314 315 314 311 308 305 303 301 297 293 290 288 286 282 279
Height
5871 5870 5868 5866 5865 5863 5861 5860 5858 5856 5854 5852 5850 5849 5847 5845 5843 5841 5839 5837 5835 5833 5831 5830 5828 5826 5825 5823 5822 5821 5820 5819 5818 5818 5817 5816 5816 5815 5815 5814 5814 5813 5814
5868 5867 5865 5863 5861 5859 5858 5856 5854 5852 5850 5848 5846 5844 5842 5840 5837 5835 5833 5831 5829 5827 5825 5823 5821 5819 5818 5816 5815 5814 5812 5811 5811 5811 5810 5809 5809 5808 5807 5806 5806 5806 5806
5864 5863 5861 5859 5857 5855 5853 5851 5849 5847 5845 5843 5841 5838 5836 5834 5832 5829 5827 5825 5822 5820 5818 5816 5814 5812 5810 5809 5807 5806 5805 5803 5802 5802 5802 5801 5801 5800 5799 5799 5798 5798 5798
5861 5859 5857 5855 5853 5851 5849 5847 5844 5842 5840 5838 5835 5833 5830 5828 5825 5823 5820 5817 5815 5813 5810 5808 5806 5804 5803 5801 5799 5797 5796 5795 5794 5793 5793 5792 5792 5792 5791 5790 5790 5789 5789
5857 5854 5853 5851 5848 5846 5844 5841 5839 5837 5834 5832 5829 5826 5823 5821 5818 5816 5813 5810 5808 5805 5803 5801 5798 5796 5794 5792 5791 5789 5787 5786 5784 5783 5783 5783 5783 5782 5782 5781 5780 5780 5780
5851 5849 5847 5845 5843 5841 5838 5836 5833 5831 5828 5825 5823 5820 5817 5814 5811 5808 5805 5803 5800 5797 5795 5792 5790 5788 5786 5784 5782 5780 5778 5777 5775 5774 5773 5773 5773 5772 5771 5771 5770 5770 5770
5846 5844 5842 5840 5837 5835 5832 5830 5827 5824 5821 5818 5816 5813 5810 5806 5803 5801 5797 5795 5792 5790 5787 5784 5781 5779 5777 5775 5772 5771 5769 5767 5765 5764 5763 5762 5762 5761 5761 5761 5760 5760 5760
5840 5838 5836 5833 5830 5828 5826 5823 5820 5818 5815 5811 5808 5805 5802 5799 5796 5793 5790 5787 5785 5782 5779 5776 5773 5771 5768 5766 5763 5761 5759 5756 5754 5753 5753 5752 5751 5750 5750 5749 5749 5750 5750
5833 5831 5828 5826 5823 5821 5818 5816 5813 5810 5807 5804 5801 5797 5795 5792 5789 5786 5783 5780 5777 5773 5770 5767 5764 5761 5759 5756 5754 5751 5748 5746 5744 5742 5741 5741 5740 5739 5739 5739 5739 5739 5739
5826 5824 5821 5819 5816 5814 5811 5808 5805 5802 5800 5796 5793 5790 5787 5784 5781 5778 5774 5771 5768 5765 5762 5758 5755 5752 5749 5745 5743 5740 5738 5735 5733 5731 5730 5730 5729 5728 5728 5728 5728 5728 5728
5818 5816 5814 5811 5808 5806 5803 5800 5797 5795 5792 5789 5785 5782 5779 5776 5773 5770 5766 5763 5759 5756 5753 5749 5745 5742 5738 5735 5733 5730 5727 5725 5722 5721 5720 5719 5718 5718 5717 5717 5717 5717 5718
5811 5808 5806 5803 5801 5798 5795 5792 5789 5787 5783 5780 5777 5774 5771 5768 5764 5761 5758 5754 5751 5747 5743 5740 5736 5732 5728 5725 5723 5720 5717 5715 5713 5711 5709 5708 5708 5707 5707 5707 5707 5707 5707
5803 5801 5798 5795 5793 5790 5787 5784 5781 5778 5775 5772 5769 5766 5762 5759 5756 5752 5749 5746 5742 5738 5734 5730 5726 5723 5719 5716 5713 5710 5707 5705 5703 5701 5700 5699 5698 5697 5697 5697 5697 5697 5698
5795 5792 5790 5787 5784 5782 5779 5776 5773 5770 5766 5763 5760 5757 5754 5751 5747 5744 5740 5737 5733 5729 5725 5721 5717 5713 5709 5706 5703 5701 5698 5695 5693 5691 5690 5689 5688 5687 5687 5687 5688 5688 5688
5787 5784 5782 5779 5776 5773 5770 5768 5765 5762 5758 5755 5752 5748 5745 5742 5739 5735 5732 5728 5725 5720 5716 5711 5707 5704 5700 5697 5695 5692 5689 5687 5684 5683 5681 5680 5679 5678 5678 5678 5678 5679 5679
5778 5776 5773 5771 5768 5765 5762 5760 5757 5754 5750 5747 5744 5740 5737 5734 5730 5727 5723 5719 5715 5711 5707 5703 5699 5695 5692 5689 5686 5683 5681 5678 5676 5674 5673 5672 5670 5670 5669 5669 5669 5670 5670
5770 5768 5765 5763 5760 5757 5754 5752 5749 5746 5743 5740 5736 5733 5729 5726 5722 5718 5714 5710 5706 5702 5698 5694 5691 5687 5684 5681 5678 5675 5673 5671 5668 5667 5665 5664 5662 5661 5661 5660 5660 5661 5661
5763 5760 5757 5755 5752 5749 5746 5743 5741 5738 5735 5732 5729 5725 5721 5717 5714 5709 5705 5701 5697 5694 5690 5686 5683 5679 5676 5673 5670 5668 5665 5663 5661 5659 5658 5656 5655 5654 5653 5652 5652 5652 5652
5755 5753 5750 5747 5744 5741 5739 5736 5733 5730 5727 5724 5721 5718 5714 5710 5706 5702 5698 5694 5690 5686 5682 5679 5675 5672 5669 5666 5663 5661 5658 5656 5654 5652 5650 5649 5647 5646 5645 5644 5644 5644 5644
5749 5746 5743 5740 5737 5735 5732 5729 5726 5723 5720 5717 5714 5710 5707 5703 5699 5695 5691 5686 5683 5679 5675 5672 5669 5666 5662 5659 5657 5654 5652 5649 5647 5645 5643 5641 5640 5638 5637 5637 5636 5636 5636
5742 5739 5737 5733 5731 5728 5725 5722 5719 5716 5713 5710 5706 5703 5699 5696 5692 5688 5684 5680 5676 5673 5669 5666 5662 5659 5656 5653 5650 5648 5645 5642 5640 5638 5636 5634 5633 5631 5630 5629 5629 5629 5629
5736 5733 5730 5727 5725 5722 5718 5715 5712 5709 5706 5703 5700 5696 5693 5689 5685 5682 5678 5674 5670 5667 5664 5660 5656 5653 5650 5647 5644 5641 5638 5636 5633 5631 5629 5628 5626 5624 5623 5623 5622 5622 5622
5729 5727 5724 5721 5718 5715 5712 5709 5706 5703 5699 5696 5693 5690 5686 5683 5679 5676 5672 5668 5664 5661 5657 5654 5651 5647 5644 5641 5638 5635 5632 5629 5627 5625 5623 5621 5619 5618 5617 5616 5615 5615 5615
5723 5720 5718 5715 5712 5709 5706 5703 5700 5697 5693 5690 5687 5683 5680 5677 5674 5670 5666 5662 5659 5655 5651 5648 5645 5641 5638 5635 5632 5629 5626 5623 5621 5618 5616 5614 5613 5612 5611 5610 5609 5608 5608
5717 5714 5711 5708 5705 5703 5700 5697 5694 5691 5687 5684 5681 5678 5674 5671 5667 5664 5660 5656 5653 5650 5646 5643 5640 5636 5633 5630 5627 5623 5620 5617 5615 5612 5610 5608 5607 5605 5604 5603 5603 5602 5602
5710 5708 5705 5702 5699 5696 5693 5690 5688 5685 5681 5678 5675 5672 5669 5665 5662 5658 5654 5651 5648 5644 5641 5638 5635 5631 5628 5624 5621 5618 5615 5612 5609 5606 5604 5602 5601 5600 5598 5597 5596 5596 5595